SCP
0 0 0 0 0 0 0 0 0 0 0 0 0 0 0 0 0 0 0 0 0 -0 0 0 0 0 0 0 0 0 0 1 0 0 0 0 0 0 0 0 0 0 0 0 0 0 0 0 0 0 0 0 0 0
0 0 0 0 0 0 0 0 0 0 0 0 0 0 0 0 0 0 0 0 0 0 0 0 0 0 0 0 0 0 1 1 1 1 1 0 0 0 0 0 0 0 0 0 0 0 0 0 0 0 0 0 0 0
0 0 0 0 0 0 0 0 0 0 0 0 0 0 0 0 0 0 0 0 0 0 -0 0 0 0 0 0 0 0 0 0 1 0 0 0 1 0 0 0 0 0 0 0 0 0 0 0 0 0 0 0 0 0
0 0 0 0 0 0 0 0 0 0 0 0 0 0 0 0 0 0 0 0 0 0 -0 0 0 0 0 0 0 -0 0 0 0 0 0 0 0 0 0 0 0 0 0 0 0 0 0 0 0 0 0 0 0 0
0 0 0 0 0 0 0 0 0 0 0 0 0 0 0 0 0 0 0 0 0 0 0 0 0 0 0 0 0 0 0 0 0 0 0 0 0 0 0 0 0 0 0 0 0 0 0 0 0 0 0 0 0 0
0 0 0 0 0 0 0 0 0 0 0 0 0 0 0 0 0 0 0 0 0 0 0 0 0 0 0 0 0 0 0 0 0 0 0 0 0 0 0 0 0 0 0 0 0 0 0 0 -0 -0 -0 -0 -0 -0
0 0 0 0 0 0 0 0 0 0 0 0 0 0 0 0 0 0 0 0 0 0 0 0 0 0 0 0 0 0 0 0 0 0 0 0 0 0 0 0 0 0 -0 0 0 0 0 -0 -0 -0 0 -0 0 0
0 0 0 0 0 0 0 0 0 0 0 0 0 0 0 0 0 0 0 0 0 0 0 0 0 0 0 0 0 0 0 0 0 0 0 0 0 0 0 0 0 0 -0 0 0 -0 -0 0 0 0 0 0 1 1
0 0 0 0 0 0 0 0 0 0 0 0 0 0 0 0 0 0 0 0 0 0 0 0 0 0 0 0 0 0 0 0 0 0 0 0 0 0 0 0 0 0 0 0 0 0 0 0 0 0 1 1 1 0
0 0 0 0 0 0 0 0 0 0 0 0 0 0 0 0 0 0 0 0 0 0 0 0 0 0 0 0 0 0 0 0 0 0 0 0 0 0 0 0 0 0 -0 0 0 0 0 0 0 1 0 0 0 -0
0 0 0 0 0 0 0 0 0 0 0 0 0 0 0 0 0 0 0 0 0 0 0 0 0 0 0 0 0 0 0 0 0 0 0 0 0 0 0 0 0 0 0 0 0 0 0 0 0 0 0 0 0 0
0 0 0 0 0 0 0 0 0 0 0 0 0 0 0 0 0 0 0 0 0 0 0 0 0 0 0 0 0 0 0 0 0 0 0 0 0 0 0 0 0 0 0 0 0 0 0 0 0 0 0 0 0 0
0 -0 0 0 0 0 0 0 0 0 0 0 0 0 0 0 0 0 0 0 0 0 0 0 0 0 0 0 0 0 0 0 0 0 0 0 0 0 0 0 0 0 0 0 0 0 0 0 0 0 0 0 0 0
0 0 0 0 0 0 0 0 0 0 0 0 0 0 0 0 0 0 0 0 0 0 0 0 0 0 0 0 0 0 0 0 0 0 0 0 0 0 0 0 0 0 0 0 0 0 0 0 0 0 0 0 0 0
0 0 0 0 0 0 0 0 0 0 0 0 0 0 0 0 0 0 0 0 0 0 0 0 0 0 0 0 0 0 0 0 0 0 0 0 0 0 0 0 0 0 0 0 0 0 0 0 0 0 0 0 0 0
0 0 0 0 0 0 0 0 0 0 0 0 0 0 0 0 0 0 0 0 0 0 0 0 0 0 0 0 0 0 0 0 0 0 0 0 0 0 0 0 0 0 0 0 0 0 0 0 0 0 0 0 0 0
0 0 0 0 0 0 0 0 0 0 0 0 0 0 0 0 0 0 0 0 0 0 0 0 0 0 0 0 0 0 0 0 0 0 0 0 0 0 0 0 0 0 0 0 0 0 0 0 0 0 0 0 0 0
0 0 0 0 0 0 0 0 0 0 0 0 0 0 0 0 0 0 0 0 0 0 0 0 0 0 0 0 0 0 0 0 0 0 0 0 0 0 0 0 0 0 0 0 0 0 0 0 0 0 0 0 0 0
0 0 0 0 0 0 0 0 0 0 0 0 0 0 0 0 0 0 0 0 0 0 0 0 0 0 0 0 0 0 0 0 0 0 0 0 0 0 0 0 0 0 0 0 0 -0 0 0 0 0 0 0 0 0
0 0 0 0 0 0 0 0 0 0 0 0 0 0 0 0 0 0 0 0 0 0 0 0 0 0 0 0 0 0 0 0 0 0 0 0 0 0 0 0 0 0 0 0 0 0 0 0 0 0 0 0 0 0
0 0 0 0 0 0 0 0 0 0 0 0 0 0 0 0 0 0 0 0 0 0 0 0 0 0 0 0 0 0 0 0 0 0 0 0 0 0 0 0 0 0 0 0 0 0 0 0 0 0 0 0 0 0
0 0 0 0 0 0 0 0 0 0 0 0 0 0 0 0 0 0 0 0 0 0 0 0 0 0 0 0 0 0 0 0 0 0 0 0 0 0 0 0 0 0 0 0 0 0 0 0 0 0 0 0 0 0
0 0 0 0 0 0 0 0 0 0 0 0 0 0 0 0 0 0 0 0 0 0 0 0 0 0 0 0 0 0 0 0 0 0 0 0 0 0 0 0 0 0 0 0 0 0 0 0 0 0 0 0 0 0
0 0 0 0 0 0 0 0 0 0 0 0 0 0 0 0 0 0 0 0 0 0 0 0 0 0 0 0 0 0 0 0 0 0 0 0 0 0 0 0 0 0 0 0 0 0 0 0 0 0 0 0 0 0
0 0 0 0 0 0 0 0 0 0 0 0 0 0 0 0 0 0 0 0 0 0 0 0 0 0 0 0 0 0 0 0 0 0 0 0 0 0 0 0 0 0 0 0 0 0 0 0 0 0 0 0 0 0
0 0 0 0 0 0 0 0 0 0 0 0 0 0 0 0 0 0 0 0 0 0 0 0 0 0 0 0 0 0 0 0 0 0 0 0 0 0 0 0 0 0 0 -0 0 0 0 0 0 0 0 0 0 0
0 0 0 0 0 0 0 0 0 0 0 0 0 0 0 0 0 0 0 0 0 0 0 0 0 0 0 0 0 0 0 0 0 0 0 0 0 0 0 0 0 0 0 0 0 0 0 0 0 0 0 0 0 0
0 0 0 0 0 0 0 0 0 0 0 0 0 0 0 0 0 0 0 0 0 0 0 0 0 0 0 0 0 0 0 0 0 0 0 0 0 0 0 0 0 0 0 0 0 0 0 0 0 0 0 0 0 0
0 0 0 0 0 0 0 0 0 0 0 0 0 0 0 0 0 0 0 0 0 0 0 0 0 0 0 0 0 0 0 0 0 0 0 0 0 0 0 0 0 0 0 0 0 0 0 0 0 0 0 0 0 0
0 0 0 0 0 0 0 0 0 0 0 0 0 0 0 0 0 0 0 0 0 0 0 0 0 0 0 0 0 0 0 0 0 0 0 0 0 0 0 0 0 0 0 0 0 0 0 0 0 0 0 0 0 0
0 0 0 0 0 0 0 0 0 0 0 0 0 0 0 0 0 0 0 0 0 0 0 0 0 0 0 0 0 0 0 0 0 0 0 0 0 0 0 0 0 0 0 0 0 0 0 0 0 0 0 0 0 0
-0 -0 -0 -0 -0 -0 -0 -0 -0 -0 0 0 0 0 0 0 0 0 0 0 0 0 0 0 0 0 0 0 0 0 0 0 0 0 0 0 0 0 0 0 0 0 0 0 0 0 0 0 0 0 0 0 0 0
-0 -0 -0 -0 -0 -0 0 -0 -0 0 0 0 0 0 0 0 0 0 0 0 0 0 0 0 0 0 0 0 0 0 0 0 0 0 0 0 0 0 0 0 0 0 0 0 0 0 0 0 0 0 0 0 0 0
Wind_Speed_500mb
29 30 36 35 34 41 46 46 43 42 40 39 39 37 34 34 33 32 25 28 24 10 34 30 17 31 34 11 7 10 8 17 9 6 6 7 5 7 6 3 1 1 2 3 4 4 4 27 11 9 9 15 31 56
30 28 36 34 35 38 45 43 41 41 40 39 39 36 33 34 34 30 26 24 28 28 19 16 15 17 4 11 10 11 8 3 8 6 0 2 5 6 1 3 4 6 6 6 5 8 10 12 27 23 32 17 16 21
30 28 36 34 36 41 41 40 41 41 40 39 39 37 33 34 37 35 30 21 16 15 30 39 43 4 10 18 10 4 6 6 3 5 3 4 2 5 1 7 4 5 4 6 4 9 13 18 18 23 26 7 16 27
27 28 37 35 41 42 42 39 42 41 40 38 39 36 33 34 38 39 31 15 18 5 6 16 19 35 21 17 6 3 4 2 1 2 2 1 2 7 6 5 3 6 11 7 4 10 8 19 22 23 24 21 25 32
25 27 38 36 50 44 42 42 43 39 39 38 38 34 31 32 36 39 34 15 17 13 6 16 22 26 19 26 10 3 4 2 3 2 4 5 6 4 3 4 3 14 11 9 11 33 29 25 28 34 33 25 28 11
26 29 40 38 48 40 41 44 41 39 39 37 36 33 29 31 36 31 16 24 20 21 9 6 6 25 25 24 20 17 11 6 2 2 6 7 3 1 4 5 10 27 25 22 10 24 28 28 23 30 21 21 19 13
26 31 40 42 48 40 42 42 39 39 38 36 34 31 29 35 44 32 10 14 33 23 10 11 14 16 36 30 19 20 18 12 9 5 8 6 5 6 5 7 11 17 24 21 20 15 23 22 14 22 27 28 21 38
27 34 41 47 55 45 47 40 39 39 37 34 31 28 28 36 42 28 16 18 31 23 9 3 10 7 40 17 12 18 26 17 12 10 7 6 5 5 4 12 0 8 13 13 9 16 12 12 20 25 21 11 44 31
32 36 49 51 61 49 45 41 42 39 36 32 29 27 24 29 27 28 18 16 27 11 5 5 6 7 20 26 15 11 19 4 11 13 13 8 3 6 13 23 15 8 10 8 10 16 24 21 27 22 26 25 19 14
33 43 56 61 58 51 46 47 43 40 35 32 31 15 13 26 23 26 16 12 11 13 12 8 7 3 10 11 15 4 10 7 1 10 5 6 8 26 6 3 5 5 4 5 11 20 31 49 41 32 31 43 42 24
37 48 64 63 54 50 52 48 43 39 34 31 18 11 24 31 29 12 10 11 12 6 14 14 18 3 3 7 8 7 6 4 2 10 9 1 6 3 11 17 12 13 14 18 23 27 19 25 29 30 32 13 24 38
42 66 70 53 54 58 54 48 44 40 29 18 11 20 31 15 10 8 7 7 8 11 15 30 28 15 5 5 5 4 2 5 8 6 6 4 7 12 16 24 22 17 17 15 15 7 21 29 36 27 19 16 43 33
59 65 74 64 60 56 51 47 44 36 26 15 10 12 11 8 6 12 12 5 4 13 19 22 11 19 9 6 6 5 3 8 4 5 5 6 2 15 19 21 25 25 17 13 6 23 22 25 19 15 19 32 45 38
66 73 64 61 56 52 48 44 45 26 16 8 10 4 9 7 8 9 9 11 12 6 34 40 17 11 8 6 7 6 8 4 0 4 5 5 9 10 9 12 18 26 14 4 15 29 13 10 8 20 13 36 36 33
75 69 61 56 52 47 44 43 36 22 9 5 4 7 10 11 10 12 11 7 8 16 20 22 11 8 4 4 4 3 3 6 5 7 6 14 7 4 8 12 15 24 25 9 16 26 25 15 8 6 17 30 38 36
75 63 59 55 50 44 38 38 25 9 2 2 2 4 7 4 3 17 35 18 24 35 29 14 7 6 3 6 5 9 6 7 6 9 24 14 7 9 12 17 22 17 20 26 4 19 15 16 14 11 21 32 40 39
66 54 59 52 46 41 40 30 19 2 3 1 5 12 4 1 11 16 22 15 16 19 5 8 5 9 3 4 5 4 8 8 26 28 21 17 16 17 18 18 20 26 19 19 28 10 16 20 15 19 25 29 37 43
49 60 56 52 49 47 39 12 7 2 8 12 15 24 39 39 34 27 22 16 11 10 6 3 0 5 2 2 2 5 16 38 27 21 18 15 13 14 19 22 24 17 21 23 26 28 10 18 23 19 30 33 30 31
63 61 59 56 49 37 11 5 6 8 14 13 28 27 27 32 36 31 25 23 24 19 9 5 5 4 2 7 16 28 30 32 29 19 12 12 11 17 20 24 21 21 24 29 34 38 18 9 4 10 11 9 12 18
61 59 53 50 39 27 10 10 10 10 9 11 15 23 14 15 27 25 25 23 18 10 9 6 3 14 15 26 30 34 34 25 21 26 17 12 4 4 13 14 17 23 24 23 34 39 27 22 26 28 28 13 23 19
56 50 45 44 29 19 12 9 11 8 6 8 12 16 15 24 19 17 15 16 12 6 9 10 14 33 31 30 23 19 18 17 18 16 11 4 9 10 11 12 15 17 25 29 29 30 21 28 28 23 31 23 25 27
51 44 41 31 15 12 12 10 7 6 6 7 11 10 8 6 6 5 7 9 5 8 16 13 15 23 25 22 15 7 6 3 2 4 4 2 6 11 8 12 15 17 18 22 27 28 27 28 24 23 24 13 16 22
43 39 26 19 12 11 7 9 7 6 6 5 7 5 4 4 3 2 2 2 3 9 15 14 20 19 20 15 8 4 7 10 9 10 10 10 13 17 17 16 14 15 18 20 20 20 19 17 19 26 32 30 36 33
33 14 10 8 10 5 4 6 4 5 6 6 4 6 7 5 8 3 1 1 5 9 9 14 19 17 13 6 9 11 15 16 18 21 20 16 7 6 11 13 14 18 21 19 21 24 22 18 16 18 24 26 24 27
12 8 12 5 10 10 7 5 3 2 4 6 4 2 4 3 3 2 3 2 10 20 20 20 20 17 13 10 20 16 19 19 18 6 9 8 6 9 13 17 21 27 31 33 35 35 25 21 24 27 31 27 24 21
8 5 11 9 10 8 10 8 9 10 6 6 8 5 2 4 4 4 3 9 9 0 4 11 19 21 21 15 9 7 13 14 14 18 19 23 27 28 26 25 26 27 26 28 31 29 23 24 24 26 22 13 14 17
6 2 3 8 7 11 8 13 12 6 5 7 8 5 4 4 5 5 6 1 16 13 12 12 9 11 14 12 8 8 9 11 16 19 17 16 16 23 23 24 27 19 19 28 30 23 25 23 23 22 24 28 33 36
15 15 7 9 14 16 6 7 6 5 4 3 12 6 8 6 2 12 21 18 14 11 11 12 11 14 15 15 15 16 17 19 21 19 18 13 6 12 12 15 21 19 20 21 23 22 24 23 24 26 29 29 27 30
16 17 24 21 12 13 13 10 10 10 15 8 4 2 3 9 14 13 13 12 11 10 7 11 17 19 16 14 18 21 23 24 28 26 25 24 20 21 26 30 31 31 33 36 35 30 25 20 21 29 30 32 35 33
8 9 7 6 4 2 3 5 9 10 14 13 9 12 16 18 18 17 18 20 21 21 20 21 24 25 26 29 33 33 32 29 24 23 22 18 15 17 25 32 39 40 41 42 42 40 39 39 35 33 34 29 33 32
7 1 0 3 1 4 10 14 7 9 15 16 13 15 17 20 24 24 25 22 23 19 20 21 23 25 24 29 33 32 23 20 19 19 23 24 25 26 30 33 37 43 47 46 46 47 49 49 48 49 51 46 36 26
1 3 7 7 7 12 17 11 10 20 29 31 29 25 24 24 28 9 19 23 26 29 24 26 30 30 19 19 23 21 21 25 29 24 21 21 23 30 33 40 47 42 41 41 43 41 39 39 38 37 31 26 18 18
4 9 9 7 4 3 7 5 6 10 23 25 27 36 41 42 8 13 11 20 14 16 16 16 16 24 17 13 15 21 20 17 21 23 24 28 27 28 34 37 36 35 28 30 34 36 39 32 24 28 24 20 20 30
Wind_Direction_500mb
272 242 227 226 227 221 209 216 216 214 212 211 212 208 207 211 209 210 205 200 224 251 273 281 323 337 347 11 107 349 44 15 42 82 139 249 212 251 83 57 35 115 40 57 123 90 11 3 4 80 179 64 63 55
272 246 226 221 223 218 206 211 210 209 209 206 209 206 204 208 203 200 195 206 223 252 269 281 264 311 291 348 20 57 110 56 43 84 295 244 328 26 116 271 11 25 168 176 98 206 277 66 124 137 125 120 98 324
267 241 225 217 218 213 203 206 206 205 205 203 207 202 201 204 202 194 176 184 203 266 292 275 259 236 237 290 311 118 104 72 79 19 237 244 14 126 346 251 54 342 96 79 121 295 228 176 167 168 161 191 286 306
265 238 220 215 206 211 202 202 203 202 200 203 204 200 199 204 201 194 175 168 197 252 273 280 252 250 273 241 293 27 134 114 118 315 273 213 174 193 213 199 139 221 132 155 78 264 262 221 222 217 216 251 260 199
268 238 216 214 206 200 198 199 199 197 199 200 201 196 197 201 199 195 189 175 196 211 259 271 264 247 232 218 211 199 305 98 100 182 133 241 252 111 12 75 218 192 193 169 219 200 210 249 266 247 253 283 162 227
280 231 212 209 205 194 194 196 194 196 196 198 196 191 191 190 184 176 203 213 208 221 265 320 334 189 206 220 224 210 236 256 254 246 247 238 234 272 123 206 255 214 235 225 230 242 227 277 268 232 249 195 198 260
269 220 213 202 193 188 196 194 192 194 193 194 191 186 184 182 174 171 184 193 209 201 223 312 308 209 223 210 212 215 229 242 238 235 229 235 252 216 138 198 253 243 213 216 240 210 248 230 239 262 209 216 243 171
249 219 211 195 187 195 199 191 191 189 187 188 184 178 177 181 183 193 169 169 183 179 182 143 272 169 192 186 194 224 232 245 231 230 232 220 274 198 252 258 271 118 179 215 214 210 198 265 261 223 187 161 169 159
236 222 201 191 185 188 194 190 187 182 180 179 172 166 165 177 187 198 176 160 169 167 195 206 186 220 173 205 216 223 213 199 234 212 223 182 288 224 229 305 247 254 209 175 171 201 233 246 193 183 182 154 99 21
234 208 196 189 183 181 188 187 179 175 174 170 160 155 161 173 168 168 162 169 166 200 215 232 254 247 194 188 189 219 195 200 184 249 169 138 240 269 16 23 250 66 146 237 223 215 232 231 234 189 183 168 133 209
217 200 186 182 176 178 185 177 174 173 170 164 178 175 148 152 154 177 174 173 184 204 204 204 223 235 43 127 200 209 182 174 98 265 129 275 356 339 60 42 29 354 333 310 303 300 280 243 204 193 169 183 270 186
202 184 186 177 175 182 178 175 175 174 168 169 157 141 144 170 180 157 190 203 163 208 193 177 196 212 207 138 96 360 150 46 234 322 82 60 262 34 37 25 23 3 353 354 346 241 159 158 151 160 214 251 223 199
184 183 177 179 177 175 174 177 176 168 175 171 159 158 171 174 79 178 191 221 189 193 172 174 152 172 180 170 111 87 26 243 322 44 129 201 116 45 45 45 52 48 16 357 103 166 171 157 145 268 226 197 206 190
177 175 172 171 173 172 176 178 177 176 171 187 170 101 166 199 214 196 179 187 209 163 197 181 145 147 148 118 157 145 230 103 350 119 179 241 64 51 31 26 25 19 18 150 195 165 172 134 91 186 228 211 203 199
168 163 165 169 170 172 176 177 175 171 205 222 190 177 203 220 237 224 245 182 196 211 168 112 88 113 63 114 177 80 239 215 184 189 216 157 138 265 328 3 15 20 26 40 198 198 161 162 157 227 215 210 208 213
160 160 167 164 165 168 169 167 161 164 259 287 235 37 328 143 269 152 146 119 110 118 109 103 104 85 219 177 148 210 173 192 209 191 152 136 106 56 39 29 34 17 2 12 125 194 219 247 270 217 207 206 219 222
156 161 159 158 156 152 147 147 154 201 264 25 40 9 278 125 150 111 113 88 101 112 82 92 93 190 189 123 194 69 183 192 148 130 116 90 61 40 15 8 3 11 11 4 39 8 276 285 245 218 224 225 228 230
154 148 146 146 145 146 146 125 127 135 47 34 74 44 72 102 96 90 102 134 127 83 78 107 328 58 158 150 339 303 120 131 120 99 111 87 73 48 27 21 7 4 1 347 342 345 18 240 257 253 234 232 235 233
140 142 141 141 141 136 120 88 67 71 60 74 68 74 70 71 72 79 87 84 87 89 92 29 72 70 205 112 130 132 128 128 135 124 95 87 79 59 38 16 12 2 358 357 356 352 7 67 36 266 252 286 338 246
142 141 143 148 148 110 79 56 48 55 50 15 63 72 75 66 60 70 72 75 95 74 60 46 25 132 140 133 136 129 127 109 109 92 102 194 61 27 10 19 20 10 3 9 3 3 350 326 302 294 292 304 297 278
143 140 148 158 129 87 78 57 62 54 35 69 61 54 66 95 82 61 49 46 63 45 52 16 148 142 136 133 135 142 139 132 117 101 97 19 14 48 34 22 29 29 12 11 12 4 358 17 15 2 334 310 303 246
116 131 130 130 79 68 68 59 73 57 57 34 55 55 70 66 57 61 31 45 55 63 29 32 151 136 131 142 138 127 101 107 138 163 157 244 321 352 357 345 347 349 359 14 6 0 352 343 314 322 316 293 312 292
125 126 111 60 58 49 56 44 71 47 74 41 32 49 51 130 195 189 113 126 119 67 40 80 129 129 128 119 107 36 355 346 348 345 328 315 314 307 307 319 341 5 16 30 41 25 14 1 354 336 326 305 302 300
145 90 62 46 48 37 53 37 75 87 85 69 29 8 1 11 25 94 162 86 274 265 294 329 208 201 194 227 308 332 324 312 302 298 298 291 285 62 67 68 57 43 41 27 25 29 28 24 17 30 21 1 343 314
117 126 141 158 173 155 162 164 169 120 127 157 179 237 269 266 62 21 215 186 266 297 308 306 294 258 213 145 110 96 66 56 42 9 42 22 356 306 310 328 335 335 331 330 341 351 355 344 339 333 339 356 3 4
87 154 168 146 175 161 162 164 171 184 151 140 201 170 143 107 120 247 244 263 292 327 43 106 140 134 107 98 86 51 28 31 25 4 345 337 335 337 341 345 342 337 340 345 345 351 356 353 352 352 350 348 349 340
90 153 181 174 145 155 161 159 152 121 158 161 170 139 117 158 202 253 300 342 135 117 98 86 81 63 51 41 27 1 336 346 5 351 345 343 337 335 334 320 320 335 343 343 344 347 353 354 353 349 340 334 337 338
48 61 93 94 64 40 54 103 125 155 221 147 139 140 151 190 219 76 87 89 92 93 86 71 46 25 22 22 5 347 323 327 322 320 315 312 344 8 32 49 21 17 10 360 351 331 324 331 334 339 340 332 338 344
69 87 73 61 46 27 30 21 7 54 30 43 98 100 23 63 36 16 13 4 346 343 352 356 3 357 342 326 332 337 335 338 348 351 355 359 356 336 337 332 323 318 318 316 312 308 310 317 320 320 316 309 294 294
115 104 93 108 117 177 324 304 294 339 2 8 2 331 326 333 349 351 339 325 316 312 308 302 302 310 315 310 308 305 309 325 326 315 316 330 331 318 315 312 310 310 309 308 308 304 299 298 298 297 305 318 322 306
31 269 208 164 168 247 267 245 235 259 287 282 269 291 304 310 306 312 303 308 310 291 292 283 284 293 292 298 302 302 303 293 299 309 316 315 310 309 312 314 317 316 312 308 308 311 314 311 308 302 298 300 298 295
227 39 6 358 351 342 333 321 280 261 260 251 253 260 265 271 278 293 317 302 287 285 291 287 284 286 284 279 277 277 300 304 300 297 292 291 305 316 318 318 318 316 310 311 314 316 318 319 313 306 302 316 267 275
300 294 285 274 277 255 15 323 255 257 256 258 259 259 256 246 195 7 12 7 346 330 300 291 293 282 277 307 297 293 285 293 310 323 324 303 299 311 323 335 332 322 318 327 335 337 335 327 327 334 316 295 291 313
Wind_Speed_850mb
29 30 36 35 34 41 46 46 43 42 40 39 39 37 34 34 33 32 25 28 24 10 34 30 17 31 34 11 7 10 8 17 9 6 6 7 5 7 6 3 1 1 2 3 4 4 4 27 11 9 9 15 31 56
30 28 36 34 35 38 45 43 41 41 40 39 39 36 33 34 34 30 26 24 28 28 19 16 15 17 4 11 10 11 8 3 8 6 0 2 5 6 1 3 4 6 6 6 5 8 10 12 27 23 32 17 16 21
30 28 36 34 36 41 41 40 41 41 40 39 39 37 33 34 37 35 30 21 16 15 30 39 43 4 10 18 10 4 6 6 3 5 3 4 2 5 1 7 4 5 4 6 4 9 13 18 18 23 26 7 16 27
27 28 37 35 41 42 42 39 42 41 40 38 39 36 33 34 38 39 31 15 18 5 6 16 19 35 21 17 6 3 4 2 1 2 2 1 2 7 6 5 3 6 11 7 4 10 8 19 22 23 24 21 25 32
25 27 38 36 50 44 42 42 43 39 39 38 38 34 31 32 36 39 34 15 17 13 6 16 22 26 19 26 10 3 4 2 3 2 4 5 6 4 3 4 3 14 11 9 11 33 29 25 28 34 33 25 28 11
26 29 40 38 48 40 41 44 41 39 39 37 36 33 29 31 36 31 16 24 20 21 9 6 6 25 25 24 20 17 11 6 2 2 6 7 3 1 4 5 10 27 25 22 10 24 28 28 23 30 21 21 19 13
26 31 40 42 48 40 42 42 39 39 38 36 34 31 29 35 44 32 10 14 33 23 10 11 14 16 36 30 19 20 18 12 9 5 8 6 5 6 5 7 11 17 24 21 20 15 23 22 14 22 27 28 21 38
27 34 41 47 55 45 47 40 39 39 37 34 31 28 28 36 42 28 16 18 31 23 9 3 10 7 40 17 12 18 26 17 12 10 7 6 5 5 4 12 0 8 13 13 9 16 12 12 20 25 21 11 44 31
32 36 49 51 61 49 45 41 42 39 36 32 29 27 24 29 27 28 18 16 27 11 5 5 6 7 20 26 15 11 19 4 11 13 13 8 3 6 13 23 15 8 10 8 10 16 24 21 27 22 26 25 19 14
33 43 56 61 58 51 46 47 43 40 35 32 31 15 13 26 23 26 16 12 11 13 12 8 7 3 10 11 15 4 10 7 1 10 5 6 8 26 6 3 5 5 4 5 11 20 31 49 41 32 31 43 42 24
37 48 64 63 54 50 52 48 43 39 34 31 18 11 24 31 29 12 10 11 12 6 14 14 18 3 3 7 8 7 6 4 2 10 9 1 6 3 11 17 12 13 14 18 23 27 19 25 29 30 32 13 24 38
42 66 70 53 54 58 54 48 44 40 29 18 11 20 31 15 10 8 7 7 8 11 15 30 28 15 5 5 5 4 2 5 8 6 6 4 7 12 16 24 22 17 17 15 15 7 21 29 36 27 19 16 43 33
59 65 74 64 60 56 51 47 44 36 26 15 10 12 11 8 6 12 12 5 4 13 19 22 11 19 9 6 6 5 3 8 4 5 5 6 2 15 19 21 25 25 17 13 6 23 22 25 19 15 19 32 45 38
66 73 64 61 56 52 48 44 45 26 16 8 10 4 9 7 8 9 9 11 12 6 34 40 17 11 8 6 7 6 8 4 0 4 5 5 9 10 9 12 18 26 14 4 15 29 13 10 8 20 13 36 36 33
75 69 61 56 52 47 44 43 36 22 9 5 4 7 10 11 10 12 11 7 8 16 20 22 11 8 4 4 4 3 3 6 5 7 6 14 7 4 8 12 15 24 25 9 16 26 25 15 8 6 17 30 38 36
75 63 59 55 50 44 38 38 25 9 2 2 2 4 7 4 3 17 35 18 24 35 29 14 7 6 3 6 5 9 6 7 6 9 24 14 7 9 12 17 22 17 20 26 4 19 15 16 14 11 21 32 40 39
66 54 59 52 46 41 40 30 19 2 3 1 5 12 4 1 11 16 22 15 16 19 5 8 5 9 3 4 5 4 8 8 26 28 21 17 16 17 18 18 20 26 19 19 28 10 16 20 15 19 25 29 37 43
49 60 56 52 49 47 39 12 7 2 8 12 15 24 39 39 34 27 22 16 11 10 6 3 0 5 2 2 2 5 16 38 27 21 18 15 13 14 19 22 24 17 21 23 26 28 10 18 23 19 30 33 30 31
63 61 59 56 49 37 11 5 6 8 14 13 28 27 27 32 36 31 25 23 24 19 9 5 5 4 2 7 16 28 30 32 29 19 12 12 11 17 20 24 21 21 24 29 34 38 18 9 4 10 11 9 12 18
61 59 53 50 39 27 10 10 10 10 9 11 15 23 14 15 27 25 25 23 18 10 9 6 3 14 15 26 30 34 34 25 21 26 17 12 4 4 13 14 17 23 24 23 34 39 27 22 26 28 28 13 23 19
56 50 45 44 29 19 12 9 11 8 6 8 12 16 15 24 19 17 15 16 12 6 9 10 14 33 31 30 23 19 18 17 18 16 11 4 9 10 11 12 15 17 25 29 29 30 21 28 28 23 31 23 25 27
51 44 41 31 15 12 12 10 7 6 6 7 11 10 8 6 6 5 7 9 5 8 16 13 15 23 25 22 15 7 6 3 2 4 4 2 6 11 8 12 15 17 18 22 27 28 27 28 24 23 24 13 16 22
43 39 26 19 12 11 7 9 7 6 6 5 7 5 4 4 3 2 2 2 3 9 15 14 20 19 20 15 8 4 7 10 9 10 10 10 13 17 17 16 14 15 18 20 20 20 19 17 19 26 32 30 36 33
33 14 10 8 10 5 4 6 4 5 6 6 4 6 7 5 8 3 1 1 5 9 9 14 19 17 13 6 9 11 15 16 18 21 20 16 7 6 11 13 14 18 21 19 21 24 22 18 16 18 24 26 24 27
12 8 12 5 10 10 7 5 3 2 4 6 4 2 4 3 3 2 3 2 10 20 20 20 20 17 13 10 20 16 19 19 18 6 9 8 6 9 13 17 21 27 31 33 35 35 25 21 24 27 31 27 24 21
8 5 11 9 10 8 10 8 9 10 6 6 8 5 2 4 4 4 3 9 9 0 4 11 19 21 21 15 9 7 13 14 14 18 19 23 27 28 26 25 26 27 26 28 31 29 23 24 24 26 22 13 14 17
6 2 3 8 7 11 8 13 12 6 5 7 8 5 4 4 5 5 6 1 16 13 12 12 9 11 14 12 8 8 9 11 16 19 17 16 16 23 23 24 27 19 19 28 30 23 25 23 23 22 24 28 33 36
15 15 7 9 14 16 6 7 6 5 4 3 12 6 8 6 2 12 21 18 14 11 11 12 11 14 15 15 15 16 17 19 21 19 18 13 6 12 12 15 21 19 20 21 23 22 24 23 24 26 29 29 27 30
16 17 24 21 12 13 13 10 10 10 15 8 4 2 3 9 14 13 13 12 11 10 7 11 17 19 16 14 18 21 23 24 28 26 25 24 20 21 26 30 31 31 33 36 35 30 25 20 21 29 30 32 35 33
8 9 7 6 4 2 3 5 9 10 14 13 9 12 16 18 18 17 18 20 21 21 20 21 24 25 26 29 33 33 32 29 24 23 22 18 15 17 25 32 39 40 41 42 42 40 39 39 35 33 34 29 33 32
7 1 0 3 1 4 10 14 7 9 15 16 13 15 17 20 24 24 25 22 23 19 20 21 23 25 24 29 33 32 23 20 19 19 23 24 25 26 30 33 37 43 47 46 46 47 49 49 48 49 51 46 36 26
1 3 7 7 7 12 17 11 10 20 29 31 29 25 24 24 28 9 19 23 26 29 24 26 30 30 19 19 23 21 21 25 29 24 21 21 23 30 33 40 47 42 41 41 43 41 39 39 38 37 31 26 18 18
4 9 9 7 4 3 7 5 6 10 23 25 27 36 41 42 8 13 11 20 14 16 16 16 16 24 17 13 15 21 20 17 21 23 24 28 27 28 34 37 36 35 28 30 34 36 39 32 24 28 24 20 20 30
Wind_Direction_850mb
272 242 227 226 227 221 209 216 216 214 212 211 212 208 207 211 209 210 205 200 224 251 273 281 323 337 347 11 107 349 44 15 42 82 139 249 212 251 83 57 35 115 40 57 123 90 11 3 4 80 179 64 63 55
272 246 226 221 223 218 206 211 210 209 209 206 209 206 204 208 203 200 195 206 223 252 269 281 264 311 291 348 20 57 110 56 43 84 295 244 328 26 116 271 11 25 168 176 98 206 277 66 124 137 125 120 98 324
267 241 225 217 218 213 203 206 206 205 205 203 207 202 201 204 202 194 176 184 203 266 292 275 259 236 237 290 311 118 104 72 79 19 237 244 14 126 346 251 54 342 96 79 121 295 228 176 167 168 161 191 286 306
265 238 220 215 206 211 202 202 203 202 200 203 204 200 199 204 201 194 175 168 197 252 273 280 252 250 273 241 293 27 134 114 118 315 273 213 174 193 213 199 139 221 132 155 78 264 262 221 222 217 216 251 260 199
268 238 216 214 206 200 198 199 199 197 199 200 201 196 197 201 199 195 189 175 196 211 259 271 264 247 232 218 211 199 305 98 100 182 133 241 252 111 12 75 218 192 193 169 219 200 210 249 266 247 253 283 162 227
280 231 212 209 205 194 194 196 194 196 196 198 196 191 191 190 184 176 203 213 208 221 265 320 334 189 206 220 224 210 236 256 254 246 247 238 234 272 123 206 255 214 235 225 230 242 227 277 268 232 249 195 198 260
269 220 213 202 193 188 196 194 192 194 193 194 191 186 184 182 174 171 184 193 209 201 223 312 308 209 223 210 212 215 229 242 238 235 229 235 252 216 138 198 253 243 213 216 240 210 248 230 239 262 209 216 243 171
249 219 211 195 187 195 199 191 191 189 187 188 184 178 177 181 183 193 169 169 183 179 182 143 272 169 192 186 194 224 232 245 231 230 232 220 274 198 252 258 271 118 179 215 214 210 198 265 261 223 187 161 169 159
236 222 201 191 185 188 194 190 187 182 180 179 172 166 165 177 187 198 176 160 169 167 195 206 186 220 173 205 216 223 213 199 234 212 223 182 288 224 229 305 247 254 209 175 171 201 233 246 193 183 182 154 99 21
234 208 196 189 183 181 188 187 179 175 174 170 160 155 161 173 168 168 162 169 166 200 215 232 254 247 194 188 189 219 195 200 184 249 169 138 240 269 16 23 250 66 146 237 223 215 232 231 234 189 183 168 133 209
217 200 186 182 176 178 185 177 174 173 170 164 178 175 148 152 154 177 174 173 184 204 204 204 223 235 43 127 200 209 182 174 98 265 129 275 356 339 60 42 29 354 333 310 303 300 280 243 204 193 169 183 270 186
202 184 186 177 175 182 178 175 175 174 168 169 157 141 144 170 180 157 190 203 163 208 193 177 196 212 207 138 96 360 150 46 234 322 82 60 262 34 37 25 23 3 353 354 346 241 159 158 151 160 214 251 223 199
184 183 177 179 177 175 174 177 176 168 175 171 159 158 171 174 79 178 191 221 189 193 172 174 152 172 180 170 111 87 26 243 322 44 129 201 116 45 45 45 52 48 16 357 103 166 171 157 145 268 226 197 206 190
177 175 172 171 173 172 176 178 177 176 171 187 170 101 166 199 214 196 179 187 209 163 197 181 145 147 148 118 157 145 230 103 350 119 179 241 64 51 31 26 25 19 18 150 195 165 172 134 91 186 228 211 203 199
168 163 165 169 170 172 176 177 175 171 205 222 190 177 203 220 237 224 245 182 196 211 168 112 88 113 63 114 177 80 239 215 184 189 216 157 138 265 328 3 15 20 26 40 198 198 161 162 157 227 215 210 208 213
160 160 167 164 165 168 169 167 161 164 259 287 235 37 328 143 269 152 146 119 110 118 109 103 104 85 219 177 148 210 173 192 209 191 152 136 106 56 39 29 34 17 2 12 125 194 219 247 270 217 207 206 219 222
156 161 159 158 156 152 147 147 154 201 264 25 40 9 278 125 150 111 113 88 101 112 82 92 93 190 189 123 194 69 183 192 148 130 116 90 61 40 15 8 3 11 11 4 39 8 276 285 245 218 224 225 228 230
154 148 146 146 145 146 146 125 127 135 47 34 74 44 72 102 96 90 102 134 127 83 78 107 328 58 158 150 339 303 120 131 120 99 111 87 73 48 27 21 7 4 1 347 342 345 18 240 257 253 234 232 235 233
140 142 141 141 141 136 120 88 67 71 60 74 68 74 70 71 72 79 87 84 87 89 92 29 72 70 205 112 130 132 128 128 135 124 95 87 79 59 38 16 12 2 358 357 356 352 7 67 36 266 252 286 338 246
142 141 143 148 148 110 79 56 48 55 50 15 63 72 75 66 60 70 72 75 95 74 60 46 25 132 140 133 136 129 127 109 109 92 102 194 61 27 10 19 20 10 3 9 3 3 350 326 302 294 292 304 297 278
143 140 148 158 129 87 78 57 62 54 35 69 61 54 66 95 82 61 49 46 63 45 52 16 148 142 136 133 135 142 139 132 117 101 97 19 14 48 34 22 29 29 12 11 12 4 358 17 15 2 334 310 303 246
116 131 130 130 79 68 68 59 73 57 57 34 55 55 70 66 57 61 31 45 55 63 29 32 151 136 131 142 138 127 101 107 138 163 157 244 321 352 357 345 347 349 359 14 6 0 352 343 314 322 316 293 312 292
125 126 111 60 58 49 56 44 71 47 74 41 32 49 51 130 195 189 113 126 119 67 40 80 129 129 128 119 107 36 355 346 348 345 328 315 314 307 307 319 341 5 16 30 41 25 14 1 354 336 326 305 302 300
145 90 62 46 48 37 53 37 75 87 85 69 29 8 1 11 25 94 162 86 274 265 294 329 208 201 194 227 308 332 324 312 302 298 298 291 285 62 67 68 57 43 41 27 25 29 28 24 17 30 21 1 343 314
117 126 141 158 173 155 162 164 169 120 127 157 179 237 269 266 62 21 215 186 266 297 308 306 294 258 213 145 110 96 66 56 42 9 42 22 356 306 310 328 335 335 331 330 341 351 355 344 339 333 339 356 3 4
87 154 168 146 175 161 162 164 171 184 151 140 201 170 143 107 120 247 244 263 292 327 43 106 140 134 107 98 86 51 28 31 25 4 345 337 335 337 341 345 342 337 340 345 345 351 356 353 352 352 350 348 349 340
90 153 181 174 145 155 161 159 152 121 158 161 170 139 117 158 202 253 300 342 135 117 98 86 81 63 51 41 27 1 336 346 5 351 345 343 337 335 334 320 320 335 343 343 344 347 353 354 353 349 340 334 337 338
48 61 93 94 64 40 54 103 125 155 221 147 139 140 151 190 219 76 87 89 92 93 86 71 46 25 22 22 5 347 323 327 322 320 315 312 344 8 32 49 21 17 10 360 351 331 324 331 334 339 340 332 338 344
69 87 73 61 46 27 30 21 7 54 30 43 98 100 23 63 36 16 13 4 346 343 352 356 3 357 342 326 332 337 335 338 348 351 355 359 356 336 337 332 323 318 318 316 312 308 310 317 320 320 316 309 294 294
115 104 93 108 117 177 324 304 294 339 2 8 2 331 326 333 349 351 339 325 316 312 308 302 302 310 315 310 308 305 309 325 326 315 316 330 331 318 315 312 310 310 309 308 308 304 299 298 298 297 305 318 322 306
31 269 208 164 168 247 267 245 235 259 287 282 269 291 304 310 306 312 303 308 310 291 292 283 284 293 292 298 302 302 303 293 299 309 316 315 310 309 312 314 317 316 312 308 308 311 314 311 308 302 298 300 298 295
227 39 6 358 351 342 333 321 280 261 260 251 253 260 265 271 278 293 317 302 287 285 291 287 284 286 284 279 277 277 300 304 300 297 292 291 305 316 318 318 318 316 310 311 314 316 318 319 313 306 302 316 267 275
300 294 285 274 277 255 15 323 255 257 256 258 259 259 256 246 195 7 12 7 346 330 300 291 293 282 277 307 297 293 285 293 310 323 324 303 299 311 323 335 332 322 318 327 335 337 335 327 327 334 316 295 291 313